User: anonymous   Login
Location: Caltech
(34.1382°N, 118.1253°W)
Time: 09:06:57
(UTC-08:00)
Language:

Iridium 68 - Orbit

View from above orbital plane
View from above orbital plane
View from above satellite
View from above satellite

Ground track
Ground track

The orbit data is extracted from the following two-line orbital elements,

1 25291U 98021G   16041.54643809  .00000060  00000-0  14292-4 0  9998
2 25291  86.3928  69.9641 0002150  95.2562 264.8879 14.34219371934385
Epoch (UTC): 10 February 2016 13:06:52
Eccentricity: 0.0002150
inclination: 86.3928°
perigee height: 776 km
apogee height: 779 km
right ascension of ascending node: 69.9641°
argument of perigee: 95.2562°
revolutions per day: 14.34219371
mean anomaly at epoch: 264.8879°
orbit number at epoch: 93438

The dashed part of the orbit path shows where the satellite is in the earth's shadow,  

DLR